User: anonymous   Login
Location: Saddleback Butte
(34.6776°N, 117.8050°W)
Time: 13:30:01
(UTC-07:00)
Language:

Cosmos 1862 Rocket - Orbit

View from above orbital plane
View from above orbital plane
View from above satellite
View from above satellite

Ground track
Ground track

The orbit data is extracted from the following two-line orbital elements,

1 18153U 87055B   16269.74438618  .00000107  00000-0  10218-4 0  9992
2 18153  82.5032 352.7481 0020422 232.1234 127.8134 14.83136041579162
Epoch (UTC): 25 September 2016 17:51:54
Eccentricity: 0.0020422
inclination: 82.5032°
perigee height: 605 km
apogee height: 634 km
right ascension of ascending node: 352.7481°
argument of perigee: 232.1234°
revolutions per day: 14.83136041
mean anomaly at epoch: 127.8134°
orbit number at epoch: 57916

The dashed part of the orbit path shows where the satellite is in the earth's shadow,  

DLR